Location: Arcones
(41.1182°N, 3.7238°W)
Time: 05:19:20
(UTC+00:00)

IRAS Rocket - Pass Details

Date: 14 March 2026
Orbit: 845 x 876 km, 100.1° (Epoch: 15 April)

Event Time Altitude Azimuth Distance (km) Brightness Sun altitude
Rises 20:20:35 0° 182° (S) 3,453 7.2 -23.1°
Reaches altitude 10° 20:23:05 10° 188° (S) 2,517 6.6 -23.6°
Maximum altitude 20:28:23 43° 260° (W) 1,202 5.3 -24.5°
Drops below altitude 10° 20:33:41 10° 331° (NNW) 2,520 7.3 -25.4°
Sets 20:36:12 0° 338° (NNW) 3,457 8.0 -25.9°
